Date String (YYYY-MM-DD hh:mm:ss) UTC,Instrument flags,Ambient pressure (hPa),Sample flow (lpm),Bypass flow (lpm),Sample temperature (°C),Ambient temperature (°C),ASC tube jacket temperature (°C),LED temperature (°C),Box temperature (°C),Sample RH (%),Mass concentration (μg/m³),Mass concentration (μg/m³)
DateTimeUTC,F1_M11,P_M11,Q1_M11,Q2_M11,T1_M11,T2_M11,T3_M11,T4_M11,T5_M11,U1_M11,X2_M11,X0_M11
2021-08-13 18:00:00,,0835.6,5.02,0.00,29.2,27.7,00.0,38.2,31.0,33.0,0010.35,0025.97
2021-08-13 18:01:00,,0835.6,4.99,0.00,29.2,28.0,00.0,38.2,31.1,33.0,0010.30,0025.17
2021-08-13 18:02:00,,0835.6,5.02,0.00,29.3,28.2,00.0,38.2,31.2,32.7,0010.36,0025.69
2021-08-13 18:03:00,,0835.6,5.00,0.00,29.3,28.4,00.0,38.3,31.3,32.8,0010.34,0025.37
2021-08-13 18:04:00,,0835.6,5.01,0.00,29.4,28.5,00.0,38.3,31.4,32.9,0010.28,0025.70
2021-08-13 18:05:00,,0835.6,5.01,0.00,29.4,27.7,00.0,38.3,31.1,32.8,0010.19,0027.02
2021-08-13 18:06:00,,0835.6,4.99,0.00,29.3,26.3,00.0,38.3,30.7,32.9,0010.19,0028.92
2021-08-13 18:07:00,,0835.6,5.01,0.00,29.2,26.0,00.0,38.3,30.6,33.1,0010.15,0028.71
2021-08-13 18:08:00,,0835.5,5.00,0.00,29.1,26.4,00.0,38.3,30.7,33.7,0010.08,0028.10
2021-08-13 18:09:00,,0835.6,4.99,0.00,29.1,26.8,00.0,38.2,30.8,33.6,0010.00,0027.66
2021-08-13 18:10:00,,0835.5,5.01,0.00,29.1,27.2,00.0,38.2,30.9,33.8,0009.90,0027.53
2021-08-13 18:11:00,,0835.5,4.99,0.00,29.2,27.5,00.0,38.2,31.0,33.7,0009.88,0028.88
2021-08-13 18:12:00,,0835.5,5.01,0.00,29.2,27.9,00.0,38.2,31.1,33.7,0009.90,0029.47
2021-08-13 18:13:00,,0835.5,5.02,0.00,29.3,28.1,00.0,38.2,31.2,33.4,0009.84,0029.16
2021-08-13 18:14:00,,0835.5,4.98,0.00,29.3,28.3,00.0,38.3,31.3,33.3,0009.82,0029.26
2021-08-13 18:15:00,,0835.5,5.00,0.00,29.4,28.3,00.0,38.3,31.3,33.4,0009.76,0027.88
2021-08-13 18:16:00,,0835.5,4.99,0.00,29.3,27.0,00.0,38.3,30.9,33.4,0009.83,0026.04
2021-08-13 18:17:00,,0835.5,5.01,0.00,29.2,26.0,00.0,38.3,30.6,33.8,0009.84,0024.47
2021-08-13 18:18:00,,0835.5,4.99,0.00,29.1,26.1,00.0,38.3,30.6,34.0,0009.96,0024.76
2021-08-13 18:19:00,,0835.5,5.00,0.00,29.1,26.5,00.0,38.2,30.7,34.1,0010.05,0025.47
2021-08-13 18:20:00,,0835.5,4.99,0.00,29.1,26.9,00.0,38.2,30.8,34.4,0010.07,0024.94
2021-08-13 18:21:00,,0835.5,5.00,0.00,29.1,27.3,00.0,38.2,30.9,33.7,0010.11,0024.56
2021-08-13 18:22:00,,0835.5,5.01,0.00,29.2,27.6,00.0,38.2,31.0,33.7,0010.19,0023.73
2021-08-13 18:23:00,,0835.6,5.01,0.00,29.2,27.9,00.0,38.2,31.1,33.4,0010.21,0025.08
2021-08-13 18:24:00,,0835.5,5.00,0.00,29.3,28.2,00.0,38.2,31.2,33.6,0010.20,0024.97
2021-08-13 18:25:00,,0835.5,4.99,0.00,29.3,28.4,00.0,38.2,31.3,33.3,0010.21,0024.95
2021-08-13 18:26:00,,0835.5,5.00,0.00,29.4,28.5,00.0,38.3,31.3,33.2,0010.29,0025.67
2021-08-13 18:27:00,,0835.5,5.00,0.00,29.4,27.4,00.0,38.3,31.0,33.5,0010.27,0027.18
2021-08-13 18:28:00,,0835.5,5.01,0.00,29.2,26.1,00.0,38.3,30.7,33.5,0010.28,0027.16
2021-08-13 18:29:00,,0835.5,5.00,0.00,29.2,26.0,00.0,38.3,30.6,34.0,0010.25,0026.96
2021-08-13 18:30:00,,0835.5,4.99,0.00,29.1,26.3,00.0,38.2,30.7,34.1,0010.24,0026.61
2021-08-13 18:31:00,,0835.5,5.00,0.00,29.1,26.8,00.0,38.2,30.8,34.0,0010.30,0027.52
2021-08-13 18:32:00,,0835.5,5.00,0.00,29.1,27.2,00.0,38.2,30.9,34.1,0010.36,0028.12
2021-08-13 18:33:00,,0835.5,5.01,0.00,29.1,27.5,00.0,38.2,31.0,34.1,0010.40,0028.79
2021-08-13 18:34:00,,0835.6,4.99,0.00,29.2,27.8,00.0,38.2,31.1,34.2,0010.39,0028.23
2021-08-13 18:35:00,,0835.5,5.01,0.00,29.3,28.1,00.0,38.2,31.2,34.0,0010.43,0028.86
2021-08-13 18:36:00,,0835.5,4.99,0.00,29.3,28.3,00.0,38.2,31.3,33.7,0010.47,0028.90
2021-08-13 18:37:00,,0835.4,5.00,0.00,29.4,28.2,00.0,38.3,31.2,34.1,0010.48,0028.73
2021-08-13 18:38:00,,0835.4,5.00,0.00,29.3,26.8,00.0,38.3,30.8,34.3,0010.47,0027.35
2021-08-13 18:39:00,,0835.4,5.00,0.00,29.2,26.0,00.0,38.2,30.5,34.3,0010.47,0027.41
2021-08-13 18:40:00,,0835.3,5.00,0.00,29.1,26.1,00.0,38.2,30.6,34.5,0010.46,0029.13
2021-08-13 18:41:00,,0835.3,4.99,0.00,29.0,26.5,00.0,38.2,30.7,34.8,0010.48,0030.02
2021-08-13 18:42:00,,0835.3,5.02,0.00,29.1,26.9,00.0,38.2,30.8,35.0,0010.46,0030.93
2021-08-13 18:43:00,,0835.3,5.00,0.00,29.3,27.3,00.0,38.2,31.0,34.6,0010.37,0030.55
2021-08-13 18:44:00,,0835.3,4.99,0.00,29.4,27.6,00.0,38.2,31.1,33.7,0010.34,0029.98
2021-08-13 18:45:00,,0835.3,5.01,0.00,29.5,27.9,00.0,38.2,31.2,33.7,0010.34,0030.11
2021-08-13 18:46:00,,0835.3,4.98,0.00,29.6,28.1,00.0,38.2,31.3,33.5,0010.47,0030.15
2021-08-13 18:47:00,,0835.3,5.02,0.00,29.7,28.3,00.0,38.3,31.3,32.9,0010.62,0031.51
2021-08-13 18:48:00,,0835.2,4.99,0.00,29.7,28.4,00.0,38.4,31.4,32.9,0010.72,0032.90
2021-08-13 18:49:00,,0835.2,5.00,0.00,29.7,27.2,00.0,38.4,31.0,32.9,0010.71,0033.02
2021-08-13 18:50:00,,0835.2,5.01,0.00,29.5,26.1,00.0,38.4,30.7,33.2,0010.73,0032.47
2021-08-13 18:51:00,,0835.2,4.98,0.00,29.5,26.0,00.0,38.4,30.7,33.4,0010.79,0030.94
2021-08-13 18:52:00,,0835.2,5.02,0.00,29.4,26.4,00.0,38.4,30.7,33.6,0010.87,0030.99
2021-08-13 18:53:00,,0835.2,5.00,0.00,29.4,26.9,00.0,38.4,30.9,34.1,0010.89,0030.65
2021-08-13 18:54:00,,0835.2,4.99,0.00,29.4,27.2,00.0,38.3,31.0,34.4,0011.00,0031.15
2021-08-13 18:55:00,,0835.2,5.00,0.00,29.4,27.6,00.0,38.4,31.1,34.7,0011.09,0030.35
2021-08-13 18:56:00,,0835.1,4.98,0.00,29.5,27.9,00.0,38.4,31.2,34.5,0011.18,0029.82
2021-08-13 18:57:00,,0835.1,5.02,0.00,29.6,28.1,00.0,38.4,31.3,34.3,0011.15,0029.55
2021-08-13 18:58:00,,0835.1,5.00,0.00,29.6,28.3,00.0,38.4,31.4,34.5,0011.07,0029.11
2021-08-13 18:59:00,,0835.1,4.99,0.00,29.7,28.1,00.0,38.4,31.3,33.7,0011.12,0027.95
